Content
SEND FEEDBACK

Daily
Averages
Monthly
Summary
United States of America

CELINA, OHIO


Home > North America > United States > Ohio
Elevation: 875 feet     Latitude: 40 34N     Longitude: 084 31W

WEATHER
 
SELECT A DAY
Number of Records: 183,576;   Date Range: 1/28/98 - 8/30/14
 
SHARE

PRINT THIS DATA

[ ← Previous Day ]
WEATHER ALMANAC - FEBRUARY 13, 2013
[ Next Day → ]
[ °C ]   °F
Weather ElementAverageHighLow
Temperature29.9 °F35.1 °F (4:53 pm)26.6 °F (8:00 am)
Dewpoint23.4 °F26.1 °F (11:53 pm)21.2 °F (8:00 am)
Humidity76.8 %82 % (12:53 am)64 % (4:53 pm)
Barometer29.84 in29.94 in (12:53 am)29.76 in (2:17 pm)
Wind Speed5.5 mph10.4 mph (2:53 am)
Weather ElementAverage
Visibility7.6 mi
Wind DirectionSSW (207.3 °)

Weather ElementTotal
Precipitation---
Heating Degree Days34.2 (Base 65)
Averaged from 26 records on February 13, 2013
WEATHER CONDITIONS BREAKOUT
WIND DIRECTION BREAKOUT
WEATHER BY HOUR - FEBRUARY 13, 2013
[ °C ]   °F
Local TimeTemperatureDewpointHumidityBarometerVisibilityWind DirectionWind SpeedGust SpeedPrecipitationEventsConditions
12:53 AM28.9 °F24.1 °F82 %29.94 in8.0 miNW (310°)5.8 mphOvercast
1:53 AM28.9 °F24.1 °F82 %29.92 in8.0 miNNW (330°)5.8 mphOvercast
2:53 AM28.9 °F23.0 °F78 %29.91 in7.0 miNW (310°)10.4 mphOvercast
3:53 AM28.0 °F21.9 °F78 %29.90 in10.0 miNNW (330°)5.8 mphOvercast
4:53 AM28.0 °F21.9 °F78 %29.88 in9.0 miNorth (350°)3.5 mphOvercast
5:53 AM28.0 °F21.9 °F78 %29.88 in9.0 miCalmOvercast
7:53 AM27.0 °F21.9 °F81 %29.83 in6.0 miNorth (350°)9.2 mphHaze
8:00 AM26.6 °F21.2 °F80 %29.80 in6.0 miNorth (360°)9.2 mphHaze
8:53 AM27.0 °F21.9 °F81 %29.85 in5.0 miNNE (30°)6.9 mphHaze
9:51 AM26.6 °F21.2 °F80 %29.81 in7.0 miCalmOvercast
9:53 AM27.0 °F21.9 °F81 %29.84 in7.0 miCalmOvercast
10:53 AM28.0 °F23.0 °F81 %29.84 in6.0 miCalmHaze
11:53 AM28.9 °F23.0 °F78 %29.84 in6.0 miSW (230°)3.5 mphHaze
12:53 PM28.9 °F23.0 °F78 %29.83 in5.0 miWest (270°)5.8 mphHaze
1:53 PM30.9 °F24.1 °F76 %29.80 in5.0 miWNW (300°)8.1 mphHaze
2:17 PM30.2 °F24.8 °F80 %29.76 in6.0 miNW (320°)6.9 mphHaze
2:53 PM32.0 °F24.1 °F73 %29.78 in6.0 miNW (320°)5.8 mphHaze
3:53 PM34.0 °F24.1 °F67 %29.78 in8.0 miWest (260°)3.5 mphClear
4:53 PM35.1 °F24.1 °F64 %29.78 in9.0 miCalmClear
5:53 PM34.0 °F24.1 °F67 %29.80 in9.0 miSW (230°)5.8 mphClear
6:53 PM32.0 °F24.1 °F73 %29.82 in10.0 miSouth (180°)4.6 mphClear
7:53 PM30.0 °F24.1 °F79 %29.83 in9.0 miSouth (170°)6.9 mphClear
8:53 PM30.9 °F24.1 °F76 %29.83 in8.0 miSouth (180°)6.9 mphClear
9:53 PM32.0 °F25.0 °F75 %29.84 in9.0 miSouth (190°)8.1 mphClear
10:53 PM32.0 °F25.0 °F75 %29.84 in10.0 miSouth (180°)10.4 mphClear
11:53 PM33.1 °F26.1 °F75 %29.84 in9.0 miSouth (190°)9.2 mphMostly Cloudy
Hourly data recorded from KAOH, located miles away from Celina, Ohio







STORIES FROM OUR PARTNERS